GFSWCAN_925_temp_198.txt.gz
Temp
11 11 10 10 10 10 10 10 10 10 10 9 10 10 10 10 10 10 14 11 14 20 23 22 22 23 24 25 27 25 26 26 27 27 28 28 27 27 26 26 26 26 27 27 26 26 26 25 25 24 24 25 25 24
11 11 10 10 10 10 10 10 10 10 10 10 10 10 10 10 10 10 15 12 11 15 21 17 19 20 21 23 25 24 25 25 26 27 26 26 26 25 26 26 24 25 26 26 26 26 24 24 24 24 24 23 23 23
10 10 11 10 10 10 10 9 9 9 10 10 10 10 10 10 10 9 12 12 13 17 21 21 23 21 20 21 22 25 25 24 24 24 26 26 24 26 26 26 25 24 24 25 24 25 24 24 24 24 24 23 23 23
10 10 11 11 10 10 9 8 8 9 10 10 10 11 11 11 11 10 11 12 13 17 21 23 21 22 20 21 21 22 24 23 24 25 26 26 26 24 25 25 26 25 24 24 24 25 23 24 24 23 23 23 23 23
10 10 10 10 11 10 8 8 8 9 10 10 11 11 11 12 12 10 10 12 12 15 20 23 23 21 22 22 22 22 24 25 25 25 26 25 25 25 25 25 25 24 24 24 24 22 21 22 22 22 22 22 22 22
10 10 9 10 11 10 9 8 8 10 10 11 12 12 13 12 12 11 17 12 12 13 18 23 23 23 22 22 23 23 24 24 25 26 25 25 23 24 24 24 22 23 22 22 22 22 21 21 22 22 22 21 21 21
10 10 10 11 11 10 9 9 10 11 11 11 13 14 14 14 12 16 17 13 12 11 18 22 23 23 22 23 24 24 23 24 24 25 24 25 24 23 24 24 22 21 21 21 21 21 21 22 21 21 22 21 20 19
10 10 9 9 9 9 9 10 11 11 12 13 14 14 14 14 13 15 13 12 12 13 16 20 22 23 23 24 24 23 24 23 23 24 23 24 22 23 23 21 21 21 20 21 21 21 21 22 22 21 20 21 19 19
10 9 9 9 9 9 10 10 11 12 13 14 14 13 13 14 18 16 12 12 11 13 17 18 21 22 23 23 23 23 22 23 22 23 23 22 22 21 21 21 20 20 19 20 20 21 21 21 20 20 21 21 20 18
9 9 8 9 10 9 10 10 11 12 14 14 13 17 19 16 14 13 13 16 17 16 17 19 19 21 21 23 22 22 22 22 22 21 21 22 22 20 20 20 20 20 19 19 20 20 20 20 20 20 20 20 19 17
8 8 9 10 9 10 10 10 10 12 12 14 16 18 14 14 16 18 19 19 18 17 16 17 18 20 20 21 21 20 21 21 21 21 20 21 20 20 20 19 19 19 19 20 20 20 20 20 20 20 20 20 19 17
9 9 9 9 10 10 10 10 10 11 11 9 9 8 11 18 19 19 19 19 18 17 15 15 17 17 19 17 20 20 21 21 21 21 20 21 20 20 20 20 19 19 19 20 19 19 20 20 19 19 19 19 19 18
9 10 10 9 10 10 10 10 10 10 10 10 12 16 18 19 16 17 17 18 17 17 17 17 17 18 19 19 20 20 20 21 21 20 21 20 20 20 20 20 20 19 19 19 19 19 19 19 19 19 19 18 18 18
10 10 10 10 10 10 10 10 10 11 11 16 17 12 18 19 19 19 18 17 15 16 17 16 15 18 19 19 20 20 20 20 20 20 20 20 19 20 20 20 19 19 20 20 19 18 18 17 18 19 19 18 18 18
9 10 10 10 10 10 10 11 11 10 13 16 17 14 19 20 19 18 18 19 20 20 20 19 19 20 21 21 21 20 20 20 21 19 19 20 20 19 19 19 19 19 19 19 19 18 18 16 17 19 18 18 18 18
9 10 9 10 10 10 10 10 10 11 14 16 16 18 19 20 20 21 20 20 20 21 21 21 20 20 20 20 20 20 20 19 19 19 21 21 19 19 19 19 19 18 18 18 18 17 17 16 15 18 18 18 18 18
10 10 10 10 10 10 10 10 12 14 16 16 18 18 18 19 19 20 20 20 20 21 19 20 19 19 20 20 19 20 19 19 21 21 21 19 18 18 18 18 18 18 18 17 16 15 16 15 16 14 17 18 19 18
9 10 9 10 10 10 11 12 14 15 16 17 18 18 18 19 19 20 19 20 20 19 19 19 20 19 19 19 20 20 21 21 21 21 21 19 18 18 18 18 17 17 17 16 15 14 12 13 13 13 17 18 19 19
9 9 10 10 9 9 13 14 13 15 17 17 18 18 18 18 19 18 19 18 18 19 18 18 18 18 19 20 20 20 20 20 21 21 20 18 17 17 17 17 17 16 15 15 14 13 14 16 16 17 17 19 19 18
10 10 10 10 9 12 14 15 13 15 16 17 17 18 18 18 18 19 19 19 19 18 17 18 18 18 19 19 19 19 20 20 19 20 19 18 16 17 16 15 14 12 12 12 13 14 17 18 17 18 18 18 19 19
9 9 9 9 11 11 13 15 16 16 16 16 18 17 18 18 19 19 19 19 19 18 18 19 19 18 16 17 17 17 17 17 17 19 18 18 15 16 15 14 12 12 12 12 13 16 17 20 19 19 19 18 18 18
10 9 10 10 12 13 13 14 15 16 15 17 17 18 18 17 17 19 19 19 19 17 18 16 16 15 17 15 15 15 15 15 15 15 15 15 16 15 15 13 12 12 12 13 14 15 17 19 20 19 19 18 18 17
9 8 11 11 12 10 11 13 15 16 16 17 17 17 17 17 19 19 19 18 17 17 17 16 15 14 15 14 13 14 15 15 15 14 15 15 14 12 12 11 11 12 14 15 16 17 15 16 18 19 18 19 19 18
8 10 12 11 12 12 14 15 15 14 15 15 17 17 17 18 19 19 19 18 16 16 16 16 14 13 14 15 14 13 14 14 14 13 12 13 12 11 11 12 12 15 15 13 13 14 17 19 18 19 19 19 18 18
8 9 10 6 13 12 14 15 15 14 15 15 15 17 17 19 18 18 18 17 16 16 16 15 16 14 13 13 14 13 13 12 12 13 12 12 11 12 13 16 16 16 17 19 19 19 19 19 19 18 18 18 18 17
7 12 9 13 14 14 14 14 14 14 15 15 17 17 18 18 17 18 17 16 16 16 16 15 15 15 14 14 13 11 10 11 10 11 12 12 12 15 17 19 20 18 18 19 19 19 19 19 19 18 18 17 16 17
9 12 13 14 14 14 14 15 15 15 14 15 16 16 16 16 17 16 17 17 17 16 16 15 13 14 14 12 11 11 11 12 12 13 13 12 13 15 16 18 18 17 18 18 18 18 19 19 18 18 18 17 17 16
12 13 12 14 14 15 14 14 14 14 15 17 16 15 16 16 16 15 17 16 16 16 17 16 14 14 14 13 12 12 12 13 13 14 14 15 16 15 15 16 17 16 16 16 17 18 18 17 17 17 17 16 16 15
12 13 13 13 14 15 15 15 15 16 17 16 15 15 16 18 18 17 16 16 16 16 17 18 15 14 16 17 13 13 13 13 12 16 18 17 17 16 16 18 18 17 17 15 15 15 15 16 16 16 16 16 15 15
13 14 13 14 14 15 16 16 16 17 17 15 14 13 13 15 15 15 16 16 16 17 17 17 15 14 17 18 18 17 16 14 14 13 17 15 17 18 18 18 17 17 17 17 16 16 15 16 15 16 16 15 15 16
14 14 14 14 15 16 17 17 16 12 13 12 12 12 12 13 13 15 15 15 16 16 17 15 17 18 16 16 18 18 14 14 14 14 15 17 18 17 17 17 17 17 17 16 16 16 16 16 16 16 15 15 15 15
14 14 15 15 15 17 15 16 15 14 13 12 12 13 14 15 14 15 14 14 15 16 17 17 18 18 15 16 16 16 15 16 16 16 16 17 17 17 17 17 17 16 16 16 16 16 15 16 16 15 15 15 15 15
14 13 13 15 16 16 16 15 15 15 14 13 13 14 13 14 15 17 15 14 16 18 18 17 16 15 15 15 15 15 14 14 14 14 15 15 15 16 16 16 16 16 16 16 16 16 15 15 15 15 15 15 15 15

GFSWCAN_925_temp_201.txt.gz
Temp
10 11 11 11 11 11 10 10 9 9 9 10 10 10 11 11 11 11 17 16 17 23 26 26 27 27 28 29 30 29 29 30 31 29 31 32 31 31 30 30 29 29 30 31 31 30 28 27 28 27 26 27 27 27
10 10 10 11 10 10 10 9 8 8 9 10 10 10 11 10 11 12 18 18 16 18 24 22 23 24 25 26 28 29 29 29 30 30 31 31 30 30 29 29 28 28 29 28 29 27 26 26 26 27 27 26 26 25
10 10 10 10 10 10 10 8 8 8 10 10 11 11 11 11 11 11 14 16 18 21 25 25 26 25 24 25 26 27 29 28 28 28 30 30 28 30 29 29 28 27 27 28 27 27 27 26 27 27 26 25 25 25
10 10 10 10 11 11 10 9 9 9 10 11 11 11 10 11 12 12 14 15 17 21 23 26 25 25 24 25 25 26 27 27 28 28 29 29 29 28 29 28 28 28 27 27 27 26 26 26 25 25 25 25 25 25
10 10 10 10 11 10 10 10 10 10 11 11 11 11 12 12 12 11 14 16 15 17 22 26 26 25 25 25 25 25 27 28 28 28 28 28 29 27 28 28 29 28 27 26 24 24 24 24 24 24 24 24 25 24
10 10 10 10 10 9 9 10 10 11 11 12 12 13 13 13 13 15 19 16 16 16 18 25 26 26 25 25 25 26 27 27 28 28 28 28 27 26 27 27 26 26 25 25 24 24 24 24 25 24 24 24 24 23
10 10 10 10 9 10 10 10 11 11 12 12 14 14 14 14 14 18 19 16 14 15 19 22 25 26 25 25 27 27 26 27 27 28 27 28 27 25 27 27 25 24 24 24 24 24 23 24 24 24 24 24 23 23
10 10 11 10 9 11 11 11 11 12 12 14 14 14 14 14 14 15 15 14 13 17 20 21 23 24 26 26 26 27 27 26 26 26 26 26 26 26 25 24 24 23 23 24 23 23 24 25 24 24 23 23 23 23
9 10 9 9 10 10 10 11 11 12 14 14 15 14 13 14 21 18 15 15 14 17 21 21 21 19 25 25 25 26 26 24 25 25 26 25 25 23 24 23 23 22 22 22 23 23 23 23 23 23 23 23 22 21
10 9 9 9 10 10 10 10 11 13 14 15 14 19 20 19 16 15 15 20 20 21 21 22 21 20 22 23 23 24 25 23 23 23 25 24 24 22 22 22 22 22 22 22 22 23 22 22 22 22 23 22 22 22
9 8 9 10 10 10 10 10 11 12 16 17 19 21 17 16 18 21 21 21 22 20 20 19 19 14 20 19 16 22 22 23 23 21 23 22 22 20 21 21 21 21 22 22 23 22 22 22 21 22 22 22 21 21
9 9 10 10 10 10 10 10 10 11 13 11 11 12 15 21 21 20 20 21 21 19 17 15 18 17 18 19 19 20 20 21 20 21 20 21 19 21 22 22 22 22 22 22 22 22 21 21 21 21 21 21 21 21
10 10 10 10 10 10 10 10 11 11 11 13 15 19 21 22 17 20 19 19 18 19 16 15 16 19 20 20 18 21 20 21 23 22 22 20 20 21 21 22 22 22 22 22 22 22 21 21 21 21 21 21 20 20
10 10 10 10 10 10 10 11 11 11 12 19 20 14 21 21 21 19 21 20 20 19 19 18 18 20 21 20 21 20 21 22 21 21 20 18 19 21 21 22 22 22 22 22 22 22 20 20 20 19 20 21 20 20
10 10 10 10 10 10 11 11 12 11 16 19 20 16 22 23 23 22 21 21 22 22 21 22 21 22 19 20 20 21 20 21 22 19 19 19 21 21 21 21 22 22 22 21 21 21 20 19 19 19 19 20 20 19
10 12 10 10 10 11 11 11 12 15 17 19 19 21 23 23 20 20 20 20 23 22 21 21 20 20 21 22 21 21 21 20 20 20 17 18 20 21 20 21 21 21 21 21 21 20 19 18 18 19 19 18 20 20
10 12 12 11 11 12 12 12 16 17 19 19 21 22 22 22 22 21 21 20 21 22 18 21 20 20 23 22 21 22 21 21 22 22 22 21 20 20 20 20 20 20 20 20 19 18 17 16 17 17 18 17 20 20
11 13 11 11 11 12 15 14 17 18 18 21 21 21 22 22 22 22 21 22 22 18 21 20 21 20 20 20 19 22 21 22 22 22 22 20 20 20 20 20 19 18 18 17 17 17 16 16 16 16 16 18 21 20
10 10 10 10 9 10 16 17 17 18 20 21 21 21 21 21 22 21 22 22 21 22 21 20 19 19 19 21 21 21 22 20 20 20 21 20 20 20 18 18 17 17 17 16 16 16 15 15 16 16 18 20 21 20
10 10 10 10 10 14 16 18 16 18 18 18 20 20 21 21 22 22 22 22 22 19 18 18 18 20 18 20 20 20 21 20 19 20 20 20 21 20 18 17 17 16 15 15 15 15 16 17 17 19 19 19 20 20
11 11 11 11 14 14 17 18 18 19 19 19 21 21 20 21 20 20 20 21 21 21 19 17 18 21 19 19 19 18 18 17 17 16 17 17 17 17 16 16 17 15 14 12 14 16 14 16 18 20 20 20 19 19
12 11 12 13 14 14 16 17 17 18 18 20 20 20 19 19 20 19 21 20 17 19 20 20 19 18 20 18 17 17 17 17 16 16 16 17 17 16 16 16 16 15 13 13 15 17 17 18 19 21 21 20 20 19
10 10 13 13 14 12 13 17 17 18 17 18 19 18 20 20 19 22 20 19 20 20 18 17 17 17 17 17 17 17 16 16 16 16 16 16 15 14 14 13 12 12 14 14 16 15 16 19 19 20 20 20 20 20
10 12 13 13 14 12 17 17 18 18 18 18 18 18 19 19 20 20 19 18 19 19 18 17 18 18 17 17 18 17 16 16 17 15 13 13 12 12 11 12 13 16 15 15 15 15 18 18 19 19 21 20 20 20
11 11 11 8 15 16 16 17 17 18 17 17 17 18 19 20 18 18 19 17 18 19 18 16 17 18 16 14 15 15 14 13 14 14 12 12 12 12 13 14 15 16 16 15 16 17 17 20 21 20 20 19 19 19
9 13 10 16 16 16 16 16 16 16 17 17 18 18 18 18 18 18 17 18 18 18 18 17 17 16 14 12 11 11 10 11 11 13 12 12 12 15 17 18 20 20 20 20 21 21 21 21 20 20 20 18 17 19
10 15 16 17 16 16 17 17 17 17 17 17 18 17 18 17 18 17 18 19 19 19 18 18 17 15 13 12 12 11 11 11 12 13 13 13 14 15 16 19 19 19 19 20 20 20 21 20 20 20 20 19 18 18
14 16 15 16 17 17 15 16 17 16 17 17 17 17 17 17 17 16 17 18 18 19 18 18 17 17 15 12 13 12 13 14 14 14 16 17 17 16 18 19 18 17 17 17 18 19 19 19 19 19 19 18 18 17
14 16 16 15 16 16 15 16 17 18 18 17 16 16 17 19 18 16 17 17 18 19 19 17 17 17 18 16 14 14 13 14 15 16 18 18 16 18 19 19 20 19 18 17 16 16 16 17 17 18 18 18 18 17
16 18 16 17 16 16 17 18 18 19 17 14 13 16 17 17 16 17 17 17 18 19 19 19 19 19 18 16 17 17 15 15 14 16 18 17 18 19 19 19 19 19 19 19 19 17 16 15 17 17 18 18 17 17
18 18 17 18 18 18 18 19 19 19 17 15 15 15 16 15 13 14 15 16 17 17 18 19 19 18 19 18 17 19 18 17 16 17 17 18 19 19 19 19 19 19 18 18 18 18 18 18 18 18 17 17 17 17
18 17 18 17 18 19 20 19 18 17 17 16 17 17 17 16 16 16 16 15 17 18 19 19 19 16 18 19 19 18 17 18 18 18 18 19 19 19 19 19 19 18 18 18 18 18 18 17 18 17 17 17 17 17
18 18 18 18 19 17 19 18 18 18 17 17 17 17 18 18 18 19 17 17 19 19 19 19 19 18 18 18 18 17 16 15 15 15 16 16 16 16 17 18 18 18 18 18 18 18 18 17 17 17 17 17 17 17

GFSWCAN_925_temp_207.txt.gz
Temp
12 12 11 11 11 11 10 10 10 10 11 11 11 11 11 12 12 12 16 18 19 18 20 24 24 23 25 25 24 25 27 27 27 27 27 27 28 28 30 31 29 27 26 26 26 26 23 25 26 24 23 23 23 23
12 12 11 11 11 11 11 11 11 11 11 12 12 12 12 12 13 12 13 16 17 18 20 21 22 24 26 26 24 25 26 26 26 25 24 26 27 28 28 27 28 25 25 24 24 22 23 24 23 23 23 22 23 23
12 12 11 11 10 11 12 11 11 12 12 12 12 12 13 13 12 11 12 15 18 19 21 22 25 26 27 27 27 24 24 26 25 26 24 25 27 26 26 26 28 26 27 23 23 24 24 23 23 23 23 23 25 24
11 11 11 11 10 11 12 12 12 12 12 12 12 13 14 14 14 13 12 17 17 19 19 25 26 27 27 27 27 27 26 27 27 24 24 24 24 26 25 25 24 25 26 24 22 22 22 23 23 23 23 23 22 22
11 11 11 10 10 11 12 12 12 13 13 13 13 13 15 15 15 15 14 18 18 18 18 20 23 27 27 27 27 27 26 24 23 24 24 23 25 25 25 25 22 24 24 22 20 22 20 22 22 23 22 23 23 22
11 10 10 10 10 11 12 12 12 12 13 13 13 14 15 15 15 15 18 18 19 17 18 20 25 27 27 26 26 25 24 24 23 23 24 25 26 23 24 23 23 22 23 22 21 22 23 22 22 23 23 24 23 21
10 10 10 10 11 11 12 12 12 13 13 14 14 15 15 15 15 16 17 17 17 17 18 20 23 25 25 26 24 24 26 24 24 23 23 23 24 23 24 20 22 21 22 22 23 24 23 23 22 23 22 22 23 23
9 9 10 10 10 11 12 12 12 13 14 15 16 16 16 16 16 17 18 17 17 16 19 20 23 23 23 21 21 21 21 22 23 23 23 23 22 22 21 21 21 22 23 22 22 23 22 21 20 21 22 22 21 20
9 10 10 10 11 11 11 11 12 13 15 17 17 17 16 16 19 19 18 17 17 17 18 21 20 19 21 20 18 18 18 17 20 22 22 23 22 20 20 19 20 21 21 22 23 23 21 20 20 21 21 21 20 19
10 11 11 11 11 11 11 11 11 13 15 17 17 18 19 19 19 18 17 18 18 19 19 21 21 18 21 19 16 16 15 15 16 19 20 22 19 20 20 19 19 19 21 22 21 20 21 20 21 21 21 20 20 19
10 10 10 10 11 11 11 11 11 12 14 15 15 18 16 18 19 20 20 20 21 19 18 20 20 19 20 18 15 14 14 15 16 17 18 18 19 19 18 18 18 20 21 22 22 21 21 21 21 21 20 20 21 21
10 10 10 10 11 11 11 11 11 10 10 10 9 11 13 19 20 20 20 21 21 19 20 19 18 19 19 18 16 14 15 15 16 20 20 18 18 18 18 19 20 20 22 22 23 22 22 21 21 21 20 20 20 20
10 10 10 11 11 12 12 12 11 11 12 12 12 15 19 19 15 20 20 19 19 20 20 19 18 18 18 19 16 16 16 16 19 18 19 16 14 14 14 15 17 22 22 22 22 23 22 22 21 21 20 20 20 19
10 10 11 12 12 12 12 12 12 11 10 16 19 11 19 20 21 22 20 20 21 21 20 19 18 19 19 18 18 17 18 19 18 18 16 15 14 14 14 13 13 21 19 20 22 22 22 21 21 20 20 20 19 19
10 11 12 13 12 12 12 13 12 11 13 18 20 14 20 22 21 21 23 22 19 17 20 16 16 17 17 18 18 19 18 20 18 17 16 15 15 15 15 15 18 19 19 19 19 19 19 19 19 19 19 19 19 19
10 11 11 11 12 12 13 13 13 13 17 19 20 20 21 22 20 21 22 21 21 19 19 18 17 18 18 18 18 19 20 19 18 17 17 16 15 15 16 18 19 18 18 18 18 19 19 18 17 17 17 18 19 19
10 11 12 11 12 13 14 12 15 16 18 19 21 23 20 21 20 21 21 21 20 21 19 19 19 20 19 18 18 18 16 14 12 17 17 16 16 16 18 19 19 19 18 18 18 18 18 17 17 17 16 18 19 19
10 12 11 11 11 12 14 14 17 18 19 20 20 22 21 22 22 22 21 20 20 20 20 19 18 19 19 19 17 16 14 13 12 18 17 17 17 18 18 15 19 18 18 17 17 17 16 17 17 16 17 17 18 18
9 10 11 11 10 9 14 17 18 18 19 19 20 21 21 21 20 20 21 21 20 21 20 20 19 18 17 16 16 17 14 13 15 18 18 19 18 18 17 17 17 17 17 17 17 16 16 17 17 16 17 18 17 19
11 12 12 12 11 12 16 17 18 18 18 19 20 19 20 20 20 19 20 20 19 18 19 18 17 17 14 12 13 15 16 16 17 16 17 15 16 17 15 14 14 15 17 17 16 16 17 17 17 17 18 19 19 19
11 12 12 13 12 11 15 16 17 18 18 18 18 19 19 19 20 21 20 21 19 17 17 17 16 17 13 14 13 18 18 17 16 15 15 15 16 16 16 16 16 16 16 15 15 14 15 15 16 17 18 19 19 20
12 12 12 13 14 14 15 16 17 17 17 18 18 19 19 19 19 20 21 20 17 16 14 13 13 14 16 16 16 16 16 16 16 16 16 16 14 14 15 15 15 15 14 14 14 13 15 16 16 16 17 18 19 20
11 11 12 13 14 11 11 16 16 17 17 17 18 19 19 19 20 19 18 20 17 15 14 13 15 16 16 16 16 16 16 15 15 15 16 15 14 14 15 15 15 15 14 14 15 15 15 15 15 17 20 20 20 20
11 12 12 13 13 12 17 16 17 17 17 17 17 18 18 19 20 19 19 17 15 13 15 15 15 15 16 16 15 15 14 14 15 14 13 12 11 11 12 13 13 14 14 15 15 15 14 14 17 18 20 20 20 20
10 10 10 7 14 15 16 16 17 17 17 18 18 18 18 19 18 18 19 16 13 11 13 16 16 16 15 15 13 11 11 12 14 13 12 12 13 14 15 15 15 15 15 15 15 16 17 18 19 20 19 19 19 19
9 13 10 15 16 16 16 16 17 17 17 18 18 18 18 18 18 18 16 15 14 13 15 16 17 16 15 13 11 11 11 12 13 13 12 13 13 12 13 14 15 16 17 16 17 18 19 19 19 19 19 19 19 19
10 14 16 17 17 17 17 17 18 17 17 17 17 18 18 17 18 16 15 14 13 18 17 17 16 15 15 13 12 11 12 13 14 13 14 14 14 14 14 14 18 18 18 19 19 19 19 19 20 20 20 19 19 19
14 15 15 17 17 17 17 16 16 16 17 18 18 17 17 18 16 17 15 16 17 18 18 17 16 16 15 14 14 14 14 15 15 14 15 16 16 17 18 19 19 18 18 19 19 19 19 19 19 19 19 19 19 18
14 16 16 16 17 17 17 17 17 17 18 18 17 17 17 18 18 18 16 18 18 18 18 18 16 17 16 15 15 15 15 14 14 13 15 17 19 19 20 19 19 19 18 19 19 18 18 18 18 18 18 19 18 18
16 17 16 17 17 17 17 18 18 19 20 19 17 17 18 18 19 18 18 18 18 18 18 19 19 17 16 16 15 16 16 16 15 15 16 18 19 19 20 20 20 20 19 18 18 18 18 18 18 18 18 18 18 18
17 18 18 18 18 18 19 20 19 19 20 19 19 17 17 17 18 17 17 17 17 18 19 18 17 18 17 18 17 18 16 17 17 18 18 18 18 19 19 20 20 20 19 19 19 19 19 19 19 19 19 18 18 18
19 19 18 18 18 19 20 19 17 17 18 17 16 17 16 16 16 17 17 17 18 18 18 19 19 17 18 19 19 18 17 17 17 17 17 17 18 18 18 19 19 19 19 19 19 20 19 19 18 18 18 18 18 17
19 20 18 18 19 18 17 18 18 18 16 17 17 18 16 16 18 17 18 18 18 19 19 19 19 19 19 19 18 17 17 16 16 16 16 17 17 17 18 18 18 18 18 18 19 19 19 18 18 18 18 17 17 17

GFSWCAN_925_temp_210.txt.gz
Temp
11 12 12 12 11 11 11 12 12 12 12 12 12 12 12 13 13 12 16 16 16 13 14 19 21 20 20 19 20 20 20 22 21 22 23 23 23 25 27 26 25 24 22 23 21 21 23 25 25 24 20 20 20 21
12 12 11 11 11 11 11 12 12 12 12 13 12 12 12 13 13 12 13 17 15 13 14 19 20 21 21 22 20 19 21 20 21 21 20 21 24 22 22 24 24 25 22 21 21 20 20 21 21 20 20 21 22 19
12 11 11 11 11 11 11 12 12 12 13 13 13 13 12 13 13 12 12 15 15 12 14 16 21 26 25 24 25 21 19 22 22 20 19 20 24 20 22 22 24 23 22 20 20 22 20 20 21 21 21 20 20 20
11 11 11 11 10 11 12 12 13 13 13 13 13 13 13 14 14 14 13 15 13 12 14 16 22 23 25 26 26 26 23 22 20 18 20 20 22 21 21 20 20 20 21 19 18 20 20 21 20 20 20 20 20 19
11 11 10 10 10 12 12 12 13 13 13 13 13 14 14 15 15 15 16 17 15 15 14 13 18 25 26 26 26 26 24 20 19 20 19 20 18 21 19 18 19 19 19 19 18 19 18 19 19 20 21 21 19 18
10 10 10 10 11 12 12 12 12 13 13 14 14 14 15 15 15 15 13 16 16 16 13 14 18 22 24 25 24 22 20 20 19 19 20 19 20 20 19 18 20 18 19 19 18 19 19 19 20 21 20 19 18 17
10 9 9 10 11 11 12 12 12 13 14 14 15 16 16 16 15 15 14 17 17 16 13 14 16 20 21 19 17 16 18 17 19 19 20 19 19 18 17 17 19 19 19 19 19 20 20 21 19 19 20 20 20 18
9 9 10 11 11 11 11 12 12 13 14 15 16 16 17 17 16 17 18 18 17 15 13 15 17 17 20 15 15 14 14 14 16 17 19 20 19 17 18 18 18 19 19 20 20 19 18 17 18 19 20 19 17 17
9 10 10 10 10 10 11 12 12 13 15 16 17 17 17 16 15 18 17 17 16 15 14 15 16 16 16 14 13 13 13 15 13 16 17 18 17 18 19 17 18 18 19 18 18 18 18 18 18 18 18 17 17 17
10 10 10 10 10 11 11 12 12 13 15 16 17 17 15 17 17 17 16 14 13 13 13 15 14 16 15 13 13 13 12 13 14 15 15 16 17 16 15 15 16 17 19 19 18 18 17 18 18 19 19 18 18 17
10 10 10 10 11 11 11 12 11 12 13 13 9 10 15 17 17 14 16 16 16 17 15 15 15 15 14 14 13 11 13 13 15 15 16 15 15 15 15 15 15 17 20 19 19 20 19 18 18 18 19 19 19 18
10 10 10 10 11 11 12 12 11 10 10 9 8 9 11 13 15 17 17 18 18 17 16 15 15 15 14 13 12 12 14 14 15 15 16 16 15 13 14 16 16 16 19 21 21 20 19 20 20 19 18 18 18 19
10 10 11 11 11 12 12 12 12 11 12 10 9 11 13 14 15 18 19 17 17 17 16 15 15 14 13 13 13 13 14 14 15 15 17 15 14 13 14 14 16 17 17 16 17 21 21 20 20 20 19 19 19 19
10 11 11 12 12 12 12 12 12 12 11 11 14 10 15 18 18 18 19 16 16 17 16 14 16 14 15 15 13 15 14 15 17 17 16 14 14 14 14 15 15 15 15 16 16 18 21 19 19 19 19 19 19 18
10 11 12 12 12 12 12 13 13 12 11 12 15 15 17 18 17 18 18 16 16 15 15 15 13 14 14 15 14 15 17 18 17 16 15 14 14 13 13 14 14 14 14 16 17 17 18 18 18 18 18 18 18 19
10 11 12 12 12 12 13 13 13 12 13 13 15 17 18 19 18 17 17 16 15 15 14 13 15 15 16 15 16 17 16 16 14 13 13 13 14 13 13 14 14 16 17 16 17 17 17 17 17 17 17 17 17 18
10 12 11 11 11 13 13 13 13 13 14 17 16 17 18 17 16 18 18 17 16 16 15 15 17 18 15 15 15 15 15 13 12 12 12 12 13 14 13 14 15 17 17 17 16 16 16 16 16 15 14 16 16 16
9 10 11 11 11 12 12 13 13 15 16 15 16 16 16 17 16 16 17 16 18 17 14 16 15 16 16 16 14 13 12 11 13 13 13 12 13 15 15 15 16 16 16 16 16 16 16 16 15 14 15 16 17 18
10 10 12 12 10 10 9 14 14 15 15 16 16 16 17 17 16 17 15 16 16 15 16 14 15 14 14 13 13 12 12 11 12 12 13 14 15 14 15 15 15 16 16 16 16 15 15 15 16 16 16 16 18 19
11 12 12 12 11 10 11 12 17 14 15 15 15 14 15 15 14 15 16 17 15 15 15 15 14 13 12 12 11 12 11 11 12 13 12 12 14 15 14 14 13 14 15 15 15 16 16 15 16 16 17 17 17 18
11 11 12 12 12 10 10 11 12 14 13 13 14 15 16 15 16 16 15 14 13 13 13 12 12 12 13 13 13 13 12 13 13 12 12 12 14 14 14 15 14 14 13 13 13 13 14 15 16 15 16 16 17 18
10 11 12 12 12 13 10 14 12 13 13 14 14 16 16 15 14 15 15 15 15 13 12 11 11 11 12 13 14 15 15 15 15 14 14 14 12 12 13 14 14 13 13 13 13 14 15 16 16 16 15 17 18 18
10 11 12 13 12 8 9 14 14 15 15 15 15 16 17 15 16 16 17 14 13 11 12 12 13 15 14 15 14 14 14 13 12 12 12 12 12 12 13 13 13 13 12 13 14 14 17 16 16 16 17 18 19 18
10 10 11 12 11 9 12 14 14 15 15 15 16 17 16 16 16 16 16 12 11 11 11 13 14 12 12 12 10 11 12 12 12 11 12 12 12 12 13 13 13 14 14 16 16 15 15 16 16 16 17 18 18 18
8 9 8 6 10 13 14 15 16 15 16 16 17 16 16 15 16 16 15 12 10 11 12 13 13 11 10 10 11 11 11 12 12 10 12 12 13 14 14 15 15 16 15 15 15 16 16 16 15 17 18 18 18 17
8 10 8 13 14 14 15 15 16 16 15 16 17 16 16 16 16 16 13 12 12 12 12 12 12 11 10 11 10 11 11 13 14 13 13 14 13 12 11 11 12 15 16 16 16 16 16 16 17 18 18 18 18 17
9 12 12 12 13 15 15 15 15 15 16 16 16 16 16 16 16 13 12 13 12 15 16 16 15 14 11 11 11 12 13 14 14 14 15 15 15 15 14 13 13 17 18 18 18 17 18 18 19 19 18 18 18 18
12 13 13 14 14 14 15 15 15 15 15 15 15 16 15 15 14 13 12 16 17 16 16 16 16 15 14 13 13 13 14 15 15 15 16 17 18 18 18 18 18 17 18 19 19 18 19 18 18 18 18 18 17 18
11 12 13 14 15 15 15 15 15 14 15 15 15 15 15 14 14 14 16 17 17 16 16 15 15 15 14 14 14 15 15 15 14 14 12 13 14 18 19 19 18 18 18 18 19 18 18 18 18 18 18 18 18 18
12 13 14 15 15 15 15 14 14 14 14 15 14 14 13 15 17 18 18 17 16 16 17 17 17 15 14 14 14 15 15 15 16 15 13 13 15 18 19 19 19 19 18 18 19 18 18 18 18 18 18 17 18 18
15 15 15 15 16 16 15 15 17 16 15 16 14 12 14 14 17 17 17 17 17 17 18 17 16 17 17 16 16 15 15 17 16 16 16 16 18 18 18 19 19 19 18 19 18 18 18 18 18 18 17 17 17 17
16 15 15 16 16 16 16 16 15 15 15 15 13 14 14 13 14 13 17 17 17 17 17 18 17 17 18 17 17 18 17 17 17 17 17 17 17 18 18 18 18 19 19 18 18 18 18 18 18 18 17 17 17 17
16 17 17 17 16 17 16 16 16 14 14 14 15 14 14 14 16 14 17 17 17 18 18 18 18 18 18 17 18 17 17 17 17 17 17 17 17 17 17 18 18 18 18 18 18 18 18 17 17 17 17 17 17 17

GFSWCAN_925_temp_216.txt.gz
Temp
11 11 11 12 11 11 11 12 12 12 12 12 12 12 12 12 12 11 12 13 12 10 11 15 17 19 18 17 18 18 19 19 19 20 21 21 21 22 23 24 24 23 21 20 19 23 25 23 24 24 21 18 20 18
11 11 11 11 10 11 11 12 12 12 12 12 12 13 12 12 13 12 13 12 12 10 12 15 17 18 18 19 17 16 18 17 16 18 18 17 21 18 19 22 21 23 21 21 20 20 18 18 20 18 19 20 18 17
11 11 11 10 10 11 11 11 12 12 12 12 13 13 13 13 13 13 13 13 11 9 11 14 19 20 20 18 19 18 17 18 18 16 15 17 20 17 20 20 22 21 17 17 19 19 18 18 18 18 19 18 17 17
11 11 10 9 10 11 11 11 11 12 13 12 13 13 14 13 14 14 13 13 11 9 12 16 19 20 20 21 20 20 19 18 15 15 16 16 19 18 18 19 19 18 19 16 17 18 18 19 19 17 17 17 17 16
11 10 8 8 10 10 10 11 11 12 12 13 13 14 14 14 14 14 14 14 13 12 12 12 16 19 20 21 21 20 18 17 16 17 17 18 15 17 14 16 18 17 17 17 17 17 16 18 17 17 18 17 17 16
10 10 9 10 10 10 10 11 12 12 13 13 14 14 14 15 15 14 12 14 14 13 11 14 14 16 18 19 17 15 15 13 14 16 16 15 15 17 18 17 18 16 16 16 19 17 16 18 17 17 17 16 16 16
10 10 10 10 10 10 10 11 12 13 13 14 14 15 16 16 16 14 13 15 14 13 11 13 14 16 16 15 13 13 13 12 13 13 15 14 16 14 15 17 19 17 17 16 17 17 18 18 17 16 17 16 16 16
10 10 10 9 10 10 10 11 12 13 13 14 15 16 17 17 16 15 14 15 15 13 11 13 15 16 15 13 14 10 12 12 11 12 13 13 13 13 17 15 14 16 16 16 17 16 17 15 15 15 16 16 15 15
9 9 10 9 10 10 10 11 12 12 14 14 15 15 16 15 14 15 14 14 14 14 13 12 14 15 13 11 10 11 10 13 10 13 13 13 13 14 15 14 14 14 16 16 15 16 16 17 16 16 16 15 15 14
9 9 9 9 10 10 11 11 11 12 14 14 15 15 13 14 14 14 13 12 12 11 10 13 10 14 13 11 12 12 10 11 13 13 12 12 14 15 14 13 12 14 14 17 16 17 16 16 16 15 16 16 16 15
9 9 10 10 10 10 11 11 11 12 13 12 7 8 13 14 14 12 14 15 13 15 12 12 12 13 11 13 12 10 11 11 13 13 14 13 15 15 14 14 13 13 14 14 16 16 16 17 16 16 16 16 16 15
10 10 10 10 10 11 11 11 10 11 10 9 7 7 9 11 13 16 15 15 16 16 13 14 14 12 11 10 12 10 13 12 15 12 15 15 14 14 14 14 14 13 14 14 14 15 16 16 17 17 16 16 17 17
10 10 10 10 10 11 11 11 11 11 11 8 8 10 11 13 14 17 18 16 15 14 13 13 14 11 11 10 10 12 14 13 12 13 14 13 13 13 13 13 14 13 13 14 14 15 15 16 17 17 16 17 17 17
10 10 10 11 11 10 11 11 11 11 10 9 11 10 14 16 15 15 16 16 15 14 12 12 12 12 11 13 11 15 13 13 14 15 15 12 12 11 13 13 14 13 13 13 14 14 15 15 17 18 17 17 17 16
10 11 11 11 10 11 11 12 12 11 10 11 12 12 14 16 16 15 14 15 14 12 12 12 11 11 12 14 11 13 15 15 15 15 13 11 11 11 13 13 13 13 13 13 14 14 15 15 15 15 15 16 17 17
10 11 11 10 10 11 12 12 11 11 10 10 11 14 15 16 16 16 15 15 12 11 11 11 13 13 14 13 14 15 15 15 14 12 11 10 11 11 12 12 13 14 13 13 14 14 15 15 15 15 15 15 16 16
9 11 11 10 10 12 11 11 11 10 11 13 12 11 13 14 15 15 14 14 11 14 16 13 16 17 12 13 14 13 14 13 12 11 10 11 11 11 11 12 12 13 13 14 14 14 14 14 14 14 14 15 15 15
8 9 10 10 9 11 11 11 10 11 13 12 12 14 14 13 14 14 14 12 14 14 13 16 12 15 15 15 14 12 11 10 10 10 11 11 11 11 12 11 13 13 13 14 14 14 14 14 13 13 13 14 14 13
8 9 11 11 9 8 7 10 11 12 12 11 12 13 13 13 13 14 13 12 11 10 11 11 14 13 12 11 11 11 10 10 11 10 10 11 12 11 12 12 13 13 13 13 13 13 13 13 14 14 14 14 14 14
10 11 10 11 11 9 9 9 10 10 12 13 10 13 12 13 13 12 12 12 11 11 13 14 12 11 10 10 9 10 10 10 10 11 11 11 12 12 12 12 12 12 12 12 13 13 13 13 14 14 15 16 16 16
10 10 11 11 10 9 8 8 9 9 9 10 11 11 14 13 13 13 13 10 12 11 12 10 10 10 10 10 11 11 10 10 10 10 11 10 11 11 11 12 12 11 11 11 11 11 12 14 14 14 15 16 16 16
9 10 10 10 10 9 7 9 9 9 10 11 11 12 13 14 14 14 12 13 12 12 10 10 10 9 10 11 11 11 11 11 11 11 11 10 10 10 10 11 11 11 11 12 12 12 13 14 14 14 15 16 17 17
9 9 9 10 10 6 8 10 11 12 13 13 12 14 15 14 14 11 13 11 10 9 10 10 11 11 11 11 11 11 11 11 10 10 10 10 11 11 11 11 11 11 11 12 13 14 15 14 15 16 16 18 17 16
9 8 8 10 8 7 9 11 12 12 14 14 14 16 15 13 11 14 14 12 10 8 9 10 10 9 9 10 9 9 10 10 10 11 11 11 11 12 12 12 12 12 13 13 13 14 14 15 16 16 15 15 17 16
7 8 7 6 7 9 11 13 14 14 15 14 15 14 14 11 15 14 12 10 9 9 10 11 10 9 9 9 9 11 11 11 11 10 12 12 12 12 12 13 14 14 15 15 14 15 15 16 15 15 16 16 17 16
7 8 8 10 10 11 13 14 15 15 14 15 14 13 11 12 14 14 12 10 10 11 11 11 11 10 10 10 10 11 11 12 12 12 13 13 12 11 11 11 12 14 15 15 15 15 15 16 15 15 16 17 17 16
8 10 10 8 10 11 12 13 13 14 15 15 14 14 14 16 15 13 10 9 11 13 13 13 13 11 11 10 11 12 12 13 13 13 14 14 14 14 14 14 15 15 15 16 16 15 15 14 15 16 16 16 16 16
9 10 10 11 12 12 13 13 14 14 14 13 13 15 15 15 14 11 10 14 14 14 14 14 13 13 12 12 12 13 13 14 15 16 16 15 15 15 16 16 17 17 17 17 17 17 17 17 17 16 16 17 17 17
9 9 10 11 12 12 13 13 14 13 11 12 13 13 14 13 13 13 15 15 15 14 13 12 12 13 13 13 14 14 14 14 13 12 13 13 12 16 16 17 18 18 18 18 17 17 17 17 17 17 17 17 17 17
9 8 11 12 13 14 14 12 13 13 11 12 12 13 13 13 16 16 15 14 13 13 14 14 14 13 13 13 13 13 14 14 14 14 13 14 14 16 16 17 17 18 18 18 18 18 17 17 17 17 16 16 16 16
11 11 12 13 14 14 14 13 12 13 13 13 13 13 12 11 13 15 15 15 15 14 14 13 13 13 13 13 13 13 13 16 16 16 16 16 16 16 17 17 17 18 18 18 17 17 17 16 16 17 16 16 16 16
12 12 13 14 14 14 12 14 14 14 13 13 12 11 11 12 13 11 15 15 14 13 14 15 14 15 16 16 16 15 15 15 15 15 16 16 16 16 17 17 17 17 17 17 17 17 17 16 16 16 16 16 16 16
13 13 13 14 14 15 15 14 14 14 13 12 12 12 12 13 14 12 15 15 16 16 16 16 16 17 17 17 17 16 16 16 16 16 16 16 16 16 16 16 17 17 17 16 16 16 16 16 16 16 16 16 16 15

GFSWCAN_925_temp_219.txt.gz
Temp
11 10 10 10 10 10 11 11 11 12 12 12 12 12 12 11 11 11 12 12 12 15 17 17 19 20 21 21 22 22 23 24 25 25 26 25 27 26 26 26 27 27 27 27 25 27 26 26 26 28 27 24 24 23
10 10 10 10 9 9 10 10 11 12 12 12 12 12 12 12 12 12 11 12 11 13 17 14 16 17 18 20 21 21 22 21 21 23 23 23 25 24 24 28 23 27 26 28 27 29 22 22 22 23 24 24 24 24
10 10 10 9 9 10 10 10 11 11 12 12 12 12 13 13 13 12 12 12 10 13 17 18 21 18 18 17 19 22 21 21 22 21 23 23 23 24 26 26 25 23 21 24 23 23 22 22 22 22 24 24 23 23
10 10 10 8 9 10 10 10 11 12 12 12 12 13 13 13 13 13 12 12 11 13 18 22 18 20 18 18 17 19 21 19 20 20 23 24 24 22 24 23 24 24 22 22 23 22 22 22 22 23 22 23 22 22
10 10 10 10 10 9 10 10 11 12 12 12 13 13 13 14 14 14 13 13 13 14 18 20 18 18 18 18 19 19 20 21 22 23 23 24 22 22 21 22 25 23 24 25 27 25 24 24 22 22 22 22 22 21
10 10 10 10 9 9 10 10 11 12 12 13 13 13 14 15 14 13 16 14 13 13 16 21 18 19 18 18 18 18 19 19 20 22 23 21 19 21 24 24 23 21 21 21 24 22 21 23 22 22 22 21 21 21
9 9 9 9 9 9 10 11 11 12 13 13 13 15 16 16 15 15 16 14 13 13 16 19 20 20 17 18 18 19 18 18 19 20 21 20 21 20 22 23 18 18 20 20 21 21 21 22 21 21 21 21 20 20
9 9 9 9 9 9 10 11 11 12 13 13 14 15 16 16 15 14 14 14 13 13 15 19 20 20 17 19 20 16 19 19 17 18 19 19 19 19 21 17 16 17 18 20 20 22 24 22 21 21 20 20 19 19
8 9 8 8 9 10 10 11 11 12 13 14 14 14 14 14 15 13 13 13 13 14 18 18 19 19 17 17 16 18 16 19 16 19 18 18 19 18 15 14 14 14 17 18 19 20 21 21 20 20 19 20 20 19
9 9 9 9 9 10 10 10 11 12 14 14 14 14 17 13 13 13 12 15 16 16 16 19 15 19 17 17 17 17 15 15 18 17 16 18 17 17 16 15 15 15 16 18 19 19 20 20 20 19 18 19 20 20
9 10 10 10 10 10 10 10 10 12 12 12 10 13 12 13 13 16 17 18 17 18 17 17 17 17 15 18 16 13 16 15 18 17 18 18 18 18 16 16 14 15 15 15 17 17 17 16 18 16 16 18 19 18
9 10 10 10 10 10 10 10 10 10 9 8 7 7 8 14 16 18 18 17 17 18 17 18 17 16 16 15 17 14 16 16 18 16 18 18 18 17 16 16 15 14 14 14 14 14 15 14 14 15 15 16 18 18
9 10 10 10 10 11 10 10 11 10 10 8 8 12 14 16 15 18 19 18 18 17 17 17 17 16 15 15 15 16 17 17 16 17 18 18 16 16 15 16 14 14 14 13 14 13 13 13 14 14 14 15 18 18
9 10 11 11 10 10 10 11 11 11 10 13 14 10 17 17 18 19 19 20 18 18 17 16 17 17 15 17 16 17 17 16 17 18 18 17 16 15 15 15 14 13 12 13 13 13 13 13 13 14 15 17 17 16
10 11 11 10 10 10 11 11 12 11 10 14 14 14 17 18 18 18 18 18 17 17 17 17 15 15 16 16 15 16 17 18 18 18 17 17 15 15 16 16 16 15 14 15 14 14 13 13 14 14 16 16 16 16
9 11 11 10 10 11 11 11 10 10 11 13 13 16 17 17 18 19 18 19 16 16 15 17 16 16 16 16 16 17 17 18 17 17 16 15 15 15 15 16 16 16 15 15 14 14 14 14 14 15 16 16 16 16
9 10 10 10 10 11 11 10 10 12 13 14 16 16 16 17 16 18 18 18 15 17 18 16 18 18 15 17 17 16 17 17 17 16 15 14 14 14 14 14 15 15 15 15 15 15 15 14 14 15 16 16 15 15
7 9 10 10 8 10 10 10 12 13 14 16 16 17 17 16 16 17 17 16 17 18 17 18 16 17 17 17 18 17 16 15 14 14 15 15 14 14 14 14 14 14 14 15 15 15 14 15 15 15 15 15 14 14
7 8 10 10 9 8 9 11 11 14 15 15 15 16 16 15 15 15 16 15 14 14 15 15 17 17 17 16 16 16 15 14 15 15 14 14 13 13 13 14 14 14 14 14 14 14 14 14 15 15 15 15 16 14
10 10 10 10 10 9 11 12 10 12 15 15 14 16 16 15 15 16 16 15 15 15 16 16 17 15 15 15 14 14 14 14 14 15 15 15 14 13 13 13 13 13 13 13 13 13 14 14 15 15 16 17 17 16
9 10 10 10 9 9 10 11 12 13 14 15 15 14 15 15 16 16 16 14 15 14 16 13 14 14 13 12 12 12 13 12 14 13 14 15 14 12 12 13 12 12 13 14 15 14 14 16 15 15 15 16 17 17
8 9 9 9 10 9 10 10 12 12 13 15 15 15 16 17 16 16 14 16 14 14 13 14 13 13 14 14 13 12 12 12 12 11 11 11 13 14 14 13 13 14 14 15 14 15 14 14 14 15 17 17 15 16
9 8 8 9 10 8 10 10 12 14 14 16 15 16 16 16 16 14 16 14 13 12 12 12 13 12 13 12 12 12 11 12 13 12 12 12 12 12 11 12 11 14 15 14 13 14 14 14 14 15 16 16 17 16
8 8 9 10 10 9 12 13 13 14 14 15 15 16 17 16 16 16 17 15 13 11 13 13 12 14 14 13 13 13 12 11 12 13 12 14 13 13 12 11 12 12 13 13 12 13 14 15 15 16 15 16 16 16
7 9 9 6 10 11 12 13 14 14 16 16 16 17 17 15 17 16 16 15 13 13 13 13 13 14 13 11 12 13 11 11 13 14 14 12 12 13 13 13 13 13 14 14 14 14 15 15 16 16 16 16 17 17
8 10 9 12 12 12 13 14 15 15 15 16 16 16 16 16 16 16 16 14 14 13 14 12 14 15 12 12 12 12 11 12 12 14 14 12 12 13 14 16 17 15 14 15 15 15 15 15 15 15 17 16 16 17
9 11 12 11 11 12 12 14 14 14 15 15 17 16 16 16 16 16 14 13 14 13 13 13 13 14 13 11 11 12 13 12 12 12 13 13 13 13 14 17 17 15 14 14 14 15 16 16 16 17 17 16 17 17
11 11 11 12 12 13 13 14 15 15 16 16 15 16 16 16 16 15 14 14 13 13 13 13 12 12 12 12 12 13 13 13 15 15 14 14 14 14 15 15 15 17 16 16 16 15 16 16 17 17 17 17 17 17
10 11 11 12 12 13 14 15 16 16 15 16 16 16 17 17 15 15 15 14 13 13 13 13 12 12 12 13 13 13 13 14 15 16 16 16 17 17 15 16 16 17 17 17 17 17 17 17 17 17 17 17 16 16
11 11 12 13 13 15 16 16 16 16 14 16 15 16 16 15 15 14 14 13 14 13 14 15 13 13 13 14 14 14 15 16 15 15 15 17 16 15 16 15 15 16 17 16 16 16 16 16 16 16 16 17 17 17
12 12 13 14 15 16 15 16 15 14 14 14 14 15 13 14 14 13 14 13 14 14 14 15 14 14 14 14 14 15 16 15 15 15 14 14 15 16 16 16 16 17 17 16 16 17 17 17 16 16 16 16 16 16
13 13 14 15 16 17 14 15 14 13 14 14 13 12 13 13 14 16 13 14 13 14 15 15 15 14 14 15 14 14 14 14 14 14 15 15 15 16 16 17 17 17 16 16 16 17 17 17 17 17 17 17 16 16
14 15 15 15 16 16 17 15 15 14 14 14 14 13 12 14 16 16 15 15 15 15 15 16 16 15 16 16 16 16 16 15 15 15 15 15 16 16 16 16 16 16 15 16 16 16 16 16 16 16 16 16 16 16

GFSWCAN_925_temp_222.txt.gz
Temp
10 10 10 10 9 9 10 10 11 12 12 12 12 12 11 11 11 10 15 13 16 21 24 22 23 24 25 26 27 25 26 28 30 30 31 31 31 31 31 31 31 31 31 32 31 30 29 30 30 30 30 30 30 30
10 10 10 10 10 10 10 10 11 12 12 12 12 12 11 10 11 12 16 13 13 17 22 19 20 20 21 23 24 27 26 26 27 29 29 29 30 30 30 30 29 30 31 30 31 31 27 28 30 28 28 28 28 29
10 10 10 10 10 10 10 10 11 12 12 12 12 12 12 10 11 11 14 14 15 20 24 24 25 22 21 22 22 26 27 26 27 26 27 28 28 29 30 30 30 28 27 29 29 31 29 28 28 28 28 29 28 28
10 10 10 10 10 10 10 10 11 11 12 12 12 12 12 12 12 13 13 14 15 19 23 24 23 23 21 22 22 23 25 25 27 27 28 28 28 27 29 28 28 28 27 28 29 29 28 28 27 28 28 28 27 27
9 9 10 10 9 9 10 10 11 11 12 12 13 13 13 13 14 12 12 14 14 18 23 25 24 22 23 23 23 23 25 26 27 27 28 28 28 27 28 28 29 29 27 29 29 27 28 28 27 26 27 27 26 26
9 9 9 9 9 9 10 10 11 12 12 12 13 13 14 15 15 13 20 15 14 15 20 25 24 24 23 23 23 24 25 25 26 27 27 27 25 26 27 28 24 24 24 25 26 26 27 27 26 26 26 26 26 25
9 9 9 8 8 9 10 10 11 12 12 13 13 14 15 16 14 18 19 16 14 14 21 24 25 24 23 24 24 25 24 24 25 26 26 26 26 24 26 26 21 21 21 22 24 25 25 26 26 26 26 25 24 24
8 8 9 9 9 10 10 11 11 12 12 13 13 14 15 15 15 16 14 14 13 17 20 23 24 24 23 24 24 23 24 24 23 24 24 24 25 25 25 21 19 18 19 23 23 24 25 27 26 25 25 24 24 24
9 9 9 9 10 9 10 11 11 12 13 13 14 15 14 15 19 17 14 14 13 17 22 23 24 23 23 23 23 23 23 24 23 24 23 23 24 22 20 19 19 18 16 18 22 24 24 25 25 25 24 24 24 23
8 9 10 10 10 10 10 10 11 12 14 14 14 18 20 17 14 13 14 19 20 21 21 23 23 23 23 23 22 22 22 22 23 22 22 23 21 20 20 20 18 18 17 18 21 23 23 24 24 24 24 24 23 23
8 9 10 10 10 10 10 10 10 12 13 15 16 19 14 14 16 20 20 21 21 21 22 22 22 22 21 22 21 20 21 21 22 22 22 22 22 20 20 19 18 17 16 16 18 19 20 23 23 23 23 20 20 20
8 9 10 10 10 10 10 10 10 10 11 9 9 8 11 18 21 20 21 21 21 21 21 22 21 21 20 19 21 20 21 21 21 21 22 22 21 19 19 19 17 17 16 14 14 16 17 17 17 18 18 15 16 18
9 9 10 10 10 10 10 11 11 10 9 9 11 16 19 20 16 20 21 21 22 22 22 21 21 21 19 20 20 20 20 21 21 21 22 22 20 19 19 18 18 16 15 14 14 13 13 14 14 14 14 13 14 17
9 9 10 10 10 10 10 11 11 11 11 17 18 13 20 21 22 23 23 23 22 23 22 22 22 22 21 21 21 20 21 21 21 21 20 20 19 19 19 18 18 17 15 15 15 14 13 13 13 14 14 14 13 14
9 10 10 10 10 10 11 11 12 10 14 17 18 16 21 22 22 22 23 23 22 22 22 22 21 21 21 20 20 20 20 20 21 20 20 21 19 19 19 19 19 19 18 18 17 15 14 13 13 13 14 13 13 15
8 10 10 10 10 11 11 11 10 12 15 17 17 19 22 22 22 22 22 22 22 22 22 22 21 20 20 20 19 20 20 20 19 20 21 20 19 19 18 18 19 19 18 18 17 17 15 14 13 14 14 15 17 17
8 9 10 10 10 11 10 10 13 15 17 17 20 21 21 21 21 22 22 22 21 22 21 21 20 20 20 19 19 20 19 19 20 21 20 18 18 17 15 18 18 18 18 18 17 18 17 16 15 15 16 18 18 18
7 8 8 9 8 8 10 12 15 16 17 19 20 21 21 20 21 21 21 22 22 22 21 20 21 20 20 20 20 20 20 20 20 20 20 19 18 17 18 18 18 18 18 17 18 17 17 18 18 18 17 18 18 18
6 7 9 9 8 8 13 15 14 17 18 19 19 20 20 20 18 19 21 20 20 20 20 19 19 19 19 19 19 19 19 20 18 18 18 17 17 17 17 17 17 17 18 18 18 18 17 17 17 19 19 19 19 18
9 10 10 10 9 12 14 15 13 16 17 18 19 19 18 19 19 20 21 21 20 18 18 18 19 18 18 19 19 19 19 19 18 18 18 17 18 17 17 17 18 17 18 18 18 16 18 17 19 19 19 19 20 19
8 10 10 10 11 12 14 15 16 16 17 18 19 19 19 20 20 20 21 20 18 18 18 18 18 18 17 17 17 17 17 17 16 17 17 18 18 17 17 17 17 17 18 19 17 17 16 18 18 19 20 20 20 20
8 9 10 11 13 13 14 14 14 15 16 18 19 19 20 19 18 19 20 19 18 18 18 17 17 18 18 17 17 16 16 15 16 16 14 15 17 18 17 16 17 17 17 17 17 17 18 18 17 16 17 17 18 19
8 8 10 12 12 12 13 14 14 16 17 18 19 18 18 18 19 19 18 18 17 17 17 17 16 16 17 16 15 15 15 15 17 17 17 17 17 16 14 15 13 14 16 16 16 17 17 15 16 17 19 18 19 18
8 10 11 12 13 13 15 15 16 16 16 17 18 18 19 19 20 20 18 18 18 18 17 16 17 19 19 17 17 16 16 15 17 17 17 17 16 14 13 12 13 15 17 16 16 16 16 17 17 18 19 19 18 19
9 11 11 8 14 14 15 14 16 16 17 18 18 18 18 20 19 19 19 17 17 17 17 16 17 17 18 16 15 14 14 15 15 17 17 17 16 17 17 17 16 15 15 14 14 15 15 16 19 18 19 19 19 20
9 13 10 14 15 14 15 15 16 16 17 18 18 19 20 19 19 18 18 17 17 17 16 17 18 18 16 16 14 13 13 15 16 18 17 16 17 18 19 20 20 18 17 18 16 16 16 16 18 17 18 19 18 18
10 14 15 15 15 15 15 16 17 17 17 17 18 18 18 18 17 17 17 17 16 16 15 16 16 16 16 13 13 14 15 15 15 16 16 16 17 18 19 20 19 18 18 18 18 18 19 19 20 20 20 20 20 20
13 14 13 15 15 15 15 16 17 17 18 19 19 18 18 17 17 17 17 17 17 16 16 14 14 14 13 13 15 15 17 18 18 18 18 18 18 19 18 19 18 17 17 18 18 19 19 19 20 20 20 20 20 19
13 15 15 14 15 16 16 17 18 19 18 18 17 18 18 19 19 19 16 15 16 16 16 15 13 15 14 13 14 16 17 18 19 19 19 20 20 19 18 19 19 19 19 19 18 18 18 18 18 18 19 19 19 19
14 15 14 15 16 17 18 19 17 17 17 17 18 19 19 19 18 17 16 15 17 17 15 15 13 13 13 13 17 18 18 17 18 19 18 19 17 17 18 18 19 19 19 19 19 19 18 18 19 18 19 19 19 19
16 15 15 17 17 18 18 18 14 13 16 16 15 17 17 17 17 17 17 17 15 17 17 14 14 14 14 15 15 17 18 18 17 17 18 17 18 18 18 18 19 19 19 19 19 19 19 19 19 19 19 19 19 18
16 16 17 17 18 20 19 17 16 14 16 16 14 15 16 16 17 17 17 17 16 15 18 18 14 15 16 15 15 16 15 16 17 18 17 18 18 18 17 17 17 18 18 18 19 19 19 19 19 19 19 19 19 19
17 18 18 18 19 19 21 19 17 16 16 17 15 14 13 15 16 19 17 16 16 17 18 18 18 18 16 16 16 17 17 17 16 16 16 16 16 16 17 18 18 18 18 18 19 19 19 19 19 19 18 18 18 17